owner,sensor,date,latitude,longitude,vertical_datum,wind_speed,wind_to_direction,wind_speed_of_gust,qcFlag 
NDBC,ioos:station:NOAA.NDBC:PLSF1:1,2019-08-01T00:45:00Z,24.6930,-82.7730,10.0,4.6,60.0,5.7,'11111222,11111222,11111222' 
NDBC,ioos:station:NOAA.NDBC:PLSF1:1,2019-08-01T01:45:00Z,24.6930,-82.7730,10.0,8.8,60.0,9.3,'11111222,11111222,11111222' 
NDBC,ioos:station:NOAA.NDBC:PLSF1:1,2019-08-01T02:45:00Z,24.6930,-82.7730,10.0,8.2,70.0,9.3,'11111222,11111222,11111222' 
NDBC,ioos:station:NOAA.NDBC:PLSF1:1,2019-08-01T03:45:00Z,24.6930,-82.7730,10.0,8.8,80.0,10.3,'11111222,11111222,11111222' 
NDBC,ioos:station:NOAA.NDBC:PLSF1:1,2019-08-01T04:45:00Z,24.6930,-82.7730,10.0,9.3,80.0,10.3,'11111222,11111222,11111222' 
NDBC,ioos:station:NOAA.NDBC:PLSF1:1,2019-08-01T05:45:00Z,24.6930,-82.7730,10.0,9.3,80.0,10.3,'11111222,11111222,11111222' 
NDBC,ioos:station:NOAA.NDBC:PLSF1:1,2019-08-01T06:45:00Z,24.6930,-82.7730,10.0,8.2,110.0,9.3,'11111222,11111222,11111222' 
NDBC,ioos:station:NOAA.NDBC:PLSF1:1,2019-08-01T07:45:00Z,24.6930,-82.7730,10.0,6.2,90.0,7.2,'11111222,11111222,11111222' 
NDBC,ioos:station:NOAA.NDBC:PLSF1:1,2019-08-01T08:45:00Z,24.6930,-82.7730,10.0,7.2,50.0,7.7,'11111222,11111222,11111222' 
NDBC,ioos:station:NOAA.NDBC:PLSF1:1,2019-08-01T09:45:00Z,24.6930,-82.7730,10.0,5.7,90.0,6.7,'11111222,11111222,11111222' 
NDBC,ioos:station:NOAA.NDBC:PLSF1:1,2019-08-01T10:45:00Z,24.6930,-82.7730,10.0,7.7,90.0,9.3,'11111222,11111222,11111222' 
NDBC,ioos:station:NOAA.NDBC:PLSF1:1,2019-08-01T11:45:00Z,24.6930,-82.7730,10.0,8.8,100.0,10.3,'11111222,11111222,11111222' 
NDBC,ioos:station:NOAA.NDBC:PLSF1:1,2019-08-01T12:45:00Z,24.6930,-82.7730,10.0,7.2,90.0,7.7,'11111222,11111222,11111222' 
NDBC,ioos:station:NOAA.NDBC:PLSF1:1,2019-08-01T13:45:00Z,24.6930,-82.7730,10.0,6.7,110.0,7.2,'11111222,11111222,11111222' 
NDBC,ioos:station:NOAA.NDBC:PLSF1:1,2019-08-01T14:45:00Z,24.6930,-82.7730,10.0,7.7,100.0,8.2,'11111222,11111222,11111222' 
NDBC,ioos:station:NOAA.NDBC:PLSF1:1,2019-08-01T15:45:00Z,24.6930,-82.7730,10.0,6.7,110.0,7.2,'11111222,11111222,11111222' 
NDBC,ioos:station:NOAA.NDBC:PLSF1:1,2019-08-01T17:45:00Z,24.6930,-82.7730,10.0,5.1,110.0,5.7,'11111222,11111222,11111222' 
NDBC,ioos:station:NOAA.NDBC:PLSF1:1,2019-08-01T18:45:00Z,24.6930,-82.7730,10.0,5.7,110.0,6.2,'11111222,11111222,11111222' 
NDBC,ioos:station:NOAA.NDBC:PLSF1:1,2019-08-01T19:45:00Z,24.6930,-82.7730,10.0,2.1,120.0,2.6,'11111222,11111222,11111222' 
NDBC,ioos:station:NOAA.NDBC:PLSF1:1,2019-08-01T20:45:00Z,24.6930,-82.7730,10.0,8.8,30.0,10.3,'11111222,11111222,11111222' 
NDBC,ioos:station:NOAA.NDBC:PLSF1:1,2019-08-01T21:45:00Z,24.6930,-82.7730,10.0,9.8,40.0,10.3,'11111222,11111222,11111222' 
NDBC,ioos:station:NOAA.NDBC:PLSF1:1,2019-08-01T22:45:00Z,24.6930,-82.7730,10.0,8.8,40.0,10.8,'11111222,11111222,11111222' 
NDBC,ioos:station:NOAA.NDBC:PLSF1:1,2019-08-01T23:45:00Z,24.6930,-82.7730,10.0,7.7,50.0,8.8,'11111222,11111222,11111222' 
NDBC,ioos:station:NOAA.NDBC:PLSF1:1,2019-08-02T00:45:00Z,24.6930,-82.7730,10.0,9.8,50.0,10.3,'11111222,11111222,11111222' 
NDBC,ioos:station:NOAA.NDBC:PLSF1:1,2019-08-02T01:45:00Z,24.6930,-82.7730,10.0,10.8,80.0,11.8,'11111222,11111222,11111222' 
NDBC,ioos:station:NOAA.NDBC:PLSF1:1,2019-08-02T02:45:00Z,24.6930,-82.7730,10.0,7.7,100.0,8.2,'11111222,11111222,11111222' 
NDBC,ioos:station:NOAA.NDBC:PLSF1:1,2019-08-02T03:45:00Z,24.6930,-82.7730,10.0,8.8,110.0,10.3,'11111222,11111222,11111222' 
NDBC,ioos:station:NOAA.NDBC:PLSF1:1,2019-08-02T04:45:00Z,24.6930,-82.7730,10.0,7.7,130.0,8.2,'11111222,11111222,11111222' 
NDBC,ioos:station:NOAA.NDBC:PLSF1:1,2019-08-02T05:45:00Z,24.6930,-82.7730,10.0,7.2,90.0,7.7,'11111222,11111222,11111222' 
NDBC,ioos:station:NOAA.NDBC:PLSF1:1,2019-08-02T06:45:00Z,24.6930,-82.7730,10.0,7.7,130.0,8.8,'11111222,11111222,11111222' 
NDBC,ioos:station:NOAA.NDBC:PLSF1:1,2019-08-02T07:45:00Z,24.6930,-82.7730,10.0,7.2,140.0,8.2,'11111222,11111222,11111222' 
NDBC,ioos:station:NOAA.NDBC:PLSF1:1,2019-08-02T08:45:00Z,24.6930,-82.7730,10.0,5.7,170.0,6.7,'11111222,11111222,11111222' 
NDBC,ioos:station:NOAA.NDBC:PLSF1:1,2019-08-02T09:45:00Z,24.6930,-82.7730,10.0,3.6,160.0,4.1,'11111222,11111222,11111222' 
NDBC,ioos:station:NOAA.NDBC:PLSF1:1,2019-08-02T10:45:00Z,24.6930,-82.7730,10.0,6.7,160.0,8.2,'11111222,11111222,11111222' 
NDBC,ioos:station:NOAA.NDBC:PLSF1:1,2019-08-02T11:45:00Z,24.6930,-82.7730,10.0,4.1,100.0,5.7,'11111222,11111222,11111222' 
NDBC,ioos:station:NOAA.NDBC:PLSF1:1,2019-08-02T12:45:00Z,24.6930,-82.7730,10.0,11.8,190.0,12.9,'11111222,11111222,11111222' 
NDBC,ioos:station:NOAA.NDBC:PLSF1:1,2019-08-02T13:45:00Z,24.6930,-82.7730,10.0,4.6,280.0,5.1,'11111222,11111222,11111222' 
NDBC,ioos:station:NOAA.NDBC:PLSF1:1,2019-08-02T14:45:00Z,24.6930,-82.7730,10.0,10.8,250.0,12.9,'11111222,11111222,11111222' 
NDBC,ioos:station:NOAA.NDBC:PLSF1:1,2019-08-02T15:45:00Z,24.6930,-82.7730,10.0,4.1,220.0,4.6,'11111222,11111222,11111222' 
NDBC,ioos:station:NOAA.NDBC:PLSF1:1,2019-08-02T17:45:00Z,24.6930,-82.7730,10.0,1.5,130.0,1.5,'11111222,11111222,11111222' 
NDBC,ioos:station:NOAA.NDBC:PLSF1:1,2019-08-02T18:45:00Z,24.6930,-82.7730,10.0,4.1,170.0,4.6,'11111222,11111222,11111222' 
NDBC,ioos:station:NOAA.NDBC:PLSF1:1,2019-08-02T19:45:00Z,24.6930,-82.7730,10.0,5.7,210.0,6.7,'11111222,11111222,11111222' 
NDBC,ioos:station:NOAA.NDBC:PLSF1:1,2019-08-02T20:45:00Z,24.6930,-82.7730,10.0,5.1,210.0,6.2,'11111222,11111222,11111222' 
NDBC,ioos:station:NOAA.NDBC:PLSF1:1,2019-08-02T21:45:00Z,24.6930,-82.7730,10.0,4.6,220.0,5.1,'11111222,11111222,11111222' 
NDBC,ioos:station:NOAA.NDBC:PLSF1:1,2019-08-02T22:45:00Z,24.6930,-82.7730,10.0,2.1,220.0,3.1,'11111222,11111222,11111222' 
NDBC,ioos:station:NOAA.NDBC:PLSF1:1,2019-08-02T23:45:00Z,24.6930,-82.7730,10.0,1.0,240.0,1.5,'11111222,11111222,11111222' 
NDBC,ioos:station:NOAA.NDBC:PLSF1:1,2019-08-03T01:45:00Z,24.6930,-82.7730,10.0,1.0,270.0,2.1,'11111222,11111222,11111222' 
NDBC,ioos:station:NOAA.NDBC:PLSF1:1,2019-08-03T02:45:00Z,24.6930,-82.7730,10.0,1.5,220.0,2.6,'11111222,11111222,11111222' 
NDBC,ioos:station:NOAA.NDBC:PLSF1:1,2019-08-03T03:45:00Z,24.6930,-82.7730,10.0,1.0,270.0,2.1,'11111222,11111222,11111222' 
NDBC,ioos:station:NOAA.NDBC:PLSF1:1,2019-08-03T04:45:00Z,24.6930,-82.7730,10.0,0.5,250.0,1.5,'11111222,11111222,11111222' 
NDBC,ioos:station:NOAA.NDBC:PLSF1:1,2019-08-03T05:45:00Z,24.6930,-82.7730,10.0,2.1,200.0,3.1,'11111222,11111222,11111222' 
NDBC,ioos:station:NOAA.NDBC:PLSF1:1,2019-08-03T06:45:00Z,24.6930,-82.7730,10.0,4.6,200.0,4.6,'11111222,11111222,11111222' 
NDBC,ioos:station:NOAA.NDBC:PLSF1:1,2019-08-03T07:45:00Z,24.6930,-82.7730,10.0,4.6,200.0,5.7,'11111222,11111222,11111222' 
NDBC,ioos:station:NOAA.NDBC:PLSF1:1,2019-08-03T08:45:00Z,24.6930,-82.7730,10.0,5.1,220.0,5.7,'11111222,11111222,11111222' 
NDBC,ioos:station:NOAA.NDBC:PLSF1:1,2019-08-03T09:45:00Z,24.6930,-82.7730,10.0,5.1,220.0,6.2,'11111222,11111222,11111222' 
NDBC,ioos:station:NOAA.NDBC:PLSF1:1,2019-08-03T10:45:00Z,24.6930,-82.7730,10.0,7.2,200.0,7.7,'11111222,11111222,11111222' 
NDBC,ioos:station:NOAA.NDBC:PLSF1:1,2019-08-03T11:45:00Z,24.6930,-82.7730,10.0,8.2,200.0,9.3,'11111222,11111222,11111222' 
NDBC,ioos:station:NOAA.NDBC:PLSF1:1,2019-08-03T12:45:00Z,24.6930,-82.7730,10.0,7.7,210.0,8.2,'11111222,11111222,11111222' 
NDBC,ioos:station:NOAA.NDBC:PLSF1:1,2019-08-03T13:45:00Z,24.6930,-82.7730,10.0,7.7,220.0,8.2,'11111222,11111222,11111222' 
NDBC,ioos:station:NOAA.NDBC:PLSF1:1,2019-08-03T14:45:00Z,24.6930,-82.7730,10.0,6.2,230.0,6.7,'11111222,11111222,11111222' 
NDBC,ioos:station:NOAA.NDBC:PLSF1:1,2019-08-03T15:45:00Z,24.6930,-82.7730,10.0,5.1,240.0,6.2,'11111222,11111222,11111222' 
NDBC,ioos:station:NOAA.NDBC:PLSF1:1,2019-08-03T16:45:00Z,24.6930,-82.7730,10.0,4.1,230.0,4.6,'11111222,11111222,11111222' 
NDBC,ioos:station:NOAA.NDBC:PLSF1:1,2019-08-03T17:45:00Z,24.6930,-82.7730,10.0,4.1,250.0,4.6,'11111222,11111222,11111222' 
NDBC,ioos:station:NOAA.NDBC:PLSF1:1,2019-08-03T18:45:00Z,24.6930,-82.7730,10.0,4.1,260.0,4.6,'11111222,11111222,11111222' 
NDBC,ioos:station:NOAA.NDBC:PLSF1:1,2019-08-03T19:45:00Z,24.6930,-82.7730,10.0,4.1,270.0,4.6,'11111222,11111222,11111222' 
NDBC,ioos:station:NOAA.NDBC:PLSF1:1,2019-08-03T20:45:00Z,24.6930,-82.7730,10.0,3.1,300.0,3.6,'11111222,11111222,11111222' 
NDBC,ioos:station:NOAA.NDBC:PLSF1:1,2019-08-03T21:45:00Z,24.6930,-82.7730,10.0,3.6,280.0,4.6,'11111222,11111222,11111222' 
NDBC,ioos:station:NOAA.NDBC:PLSF1:1,2019-08-03T22:45:00Z,24.6930,-82.7730,10.0,1.5,310.0,2.1,'11111222,11111222,11111222' 
NDBC,ioos:station:NOAA.NDBC:PLSF1:1,2019-08-03T23:45:00Z,24.6930,-82.7730,10.0,4.1,140.0,4.6,'11111222,11111222,11111222' 
NDBC,ioos:station:NOAA.NDBC:PLSF1:1,2019-08-04T00:45:00Z,24.6930,-82.7730,10.0,4.1,160.0,4.6,'11111222,11111222,11111222' 
NDBC,ioos:station:NOAA.NDBC:PLSF1:1,2019-08-04T01:45:00Z,24.6930,-82.7730,10.0,2.6,190.0,3.1,'11111222,11111222,11111222' 
NDBC,ioos:station:NOAA.NDBC:PLSF1:1,2019-08-04T02:45:00Z,24.6930,-82.7730,10.0,1.0,220.0,2.6,'11111222,11111222,11111222' 
NDBC,ioos:station:NOAA.NDBC:PLSF1:1,2019-08-04T03:45:00Z,24.6930,-82.7730,10.0,5.1,220.0,5.7,'11111222,11111222,11111222' 
NDBC,ioos:station:NOAA.NDBC:PLSF1:1,2019-08-04T04:45:00Z,24.6930,-82.7730,10.0,5.1,210.0,6.2,'11111222,11111222,11111222' 
NDBC,ioos:station:NOAA.NDBC:PLSF1:1,2019-08-04T05:45:00Z,24.6930,-82.7730,10.0,3.1,220.0,3.6,'11111222,11111222,11111222' 
NDBC,ioos:station:NOAA.NDBC:PLSF1:1,2019-08-04T06:45:00Z,24.6930,-82.7730,10.0,4.1,240.0,4.6,'11111222,11111222,11111222' 
NDBC,ioos:station:NOAA.NDBC:PLSF1:1,2019-08-04T07:45:00Z,24.6930,-82.7730,10.0,3.6,250.0,4.6,'11111222,11111222,11111222' 
NDBC,ioos:station:NOAA.NDBC:PLSF1:1,2019-08-04T08:45:00Z,24.6930,-82.7730,10.0,4.1,240.0,5.1,'11111222,11111222,11111222' 
NDBC,ioos:station:NOAA.NDBC:PLSF1:1,2019-08-04T09:45:00Z,24.6930,-82.7730,10.0,5.7,230.0,6.7,'11111222,11111222,11111222' 
NDBC,ioos:station:NOAA.NDBC:PLSF1:1,2019-08-04T10:45:00Z,24.6930,-82.7730,10.0,4.6,220.0,5.7,'11111222,11111222,11111222' 
NDBC,ioos:station:NOAA.NDBC:PLSF1:1,2019-08-04T12:45:00Z,24.6930,-82.7730,10.0,5.7,220.0,5.7,'11111222,11111222,11111222' 
NDBC,ioos:station:NOAA.NDBC:PLSF1:1,2019-08-04T13:45:00Z,24.6930,-82.7730,10.0,4.6,230.0,5.1,'11111222,11111222,11111222' 
NDBC,ioos:station:NOAA.NDBC:PLSF1:1,2019-08-04T14:45:00Z,24.6930,-82.7730,10.0,3.6,250.0,3.6,'11111222,11111222,11111222' 
NDBC,ioos:station:NOAA.NDBC:PLSF1:1,2019-08-04T15:45:00Z,24.6930,-82.7730,10.0,6.2,300.0,6.7,'11111222,11111222,11111222' 
NDBC,ioos:station:NOAA.NDBC:PLSF1:1,2019-08-04T16:45:00Z,24.6930,-82.7730,10.0,2.6,290.0,2.6,'11111222,11111222,11111222' 
NDBC,ioos:station:NOAA.NDBC:PLSF1:1,2019-08-04T17:45:00Z,24.6930,-82.7730,10.0,0.0,-9999.0,0.5,'11111222,11111222,11111222' 
NDBC,ioos:station:NOAA.NDBC:PLSF1:1,2019-08-04T18:45:00Z,24.6930,-82.7730,10.0,1.5,300.0,2.1,'11111222,11111222,11111222' 
NDBC,ioos:station:NOAA.NDBC:PLSF1:1,2019-08-04T19:45:00Z,24.6930,-82.7730,10.0,2.1,260.0,2.1,'11111222,11111222,11111222' 
NDBC,ioos:station:NOAA.NDBC:PLSF1:1,2019-08-04T20:45:00Z,24.6930,-82.7730,10.0,4.1,180.0,4.6,'11111222,11111222,11111222' 
NDBC,ioos:station:NOAA.NDBC:PLSF1:1,2019-08-04T21:45:00Z,24.6930,-82.7730,10.0,4.6,200.0,5.1,'11111222,11111222,11111222' 
NDBC,ioos:station:NOAA.NDBC:PLSF1:1,2019-08-04T22:45:00Z,24.6930,-82.7730,10.0,8.2,290.0,9.8,'11111222,11111222,11111222' 
NDBC,ioos:station:NOAA.NDBC:PLSF1:1,2019-08-04T23:45:00Z,24.6930,-82.7730,10.0,4.1,300.0,5.1,'11111222,11111222,11111222' 
NDBC,ioos:station:NOAA.NDBC:PLSF1:1,2019-08-05T00:45:00Z,24.6930,-82.7730,10.0,4.6,320.0,4.6,'11111222,11111222,11111222' 
NDBC,ioos:station:NOAA.NDBC:PLSF1:1,2019-08-05T01:45:00Z,24.6930,-82.7730,10.0,2.6,330.0,2.6,'11111222,11111222,11111222' 
NDBC,ioos:station:NOAA.NDBC:PLSF1:1,2019-08-05T02:45:00Z,24.6930,-82.7730,10.0,1.0,340.0,1.5,'11111222,11111222,11111222' 
NDBC,ioos:station:NOAA.NDBC:PLSF1:1,2019-08-05T04:45:00Z,24.6930,-82.7730,10.0,1.5,280.0,1.5,'11111222,11111222,11111222' 
NDBC,ioos:station:NOAA.NDBC:PLSF1:1,2019-08-05T05:45:00Z,24.6930,-82.7730,10.0,1.5,220.0,2.6,'11111222,11111222,11111222' 
NDBC,ioos:station:NOAA.NDBC:PLSF1:1,2019-08-05T06:45:00Z,24.6930,-82.7730,10.0,2.1,230.0,3.6,'11111222,11111222,11111222' 
NDBC,ioos:station:NOAA.NDBC:PLSF1:1,2019-08-05T07:45:00Z,24.6930,-82.7730,10.0,2.6,240.0,3.1,'11111222,11111222,11111222' 
NDBC,ioos:station:NOAA.NDBC:PLSF1:1,2019-08-05T10:45:00Z,24.6930,-82.7730,10.0,2.1,200.0,2.6,'11111222,11111222,11111222' 
NDBC,ioos:station:NOAA.NDBC:PLSF1:1,2019-08-05T12:45:00Z,24.6930,-82.7730,10.0,2.6,220.0,2.6,'11111222,11111222,11111222' 
NDBC,ioos:station:NOAA.NDBC:PLSF1:1,2019-08-05T14:45:00Z,24.6930,-82.7730,10.0,1.5,270.0,2.1,'11111222,11111222,11111222' 
NDBC,ioos:station:NOAA.NDBC:PLSF1:1,2019-08-05T16:45:00Z,24.6930,-82.7730,10.0,1.0,240.0,1.0,'11111222,11111222,11111222' 
NDBC,ioos:station:NOAA.NDBC:PLSF1:1,2019-08-05T17:45:00Z,24.6930,-82.7730,10.0,0.5,260.0,1.0,'11111222,11111222,11111222' 
NDBC,ioos:station:NOAA.NDBC:PLSF1:1,2019-08-05T18:45:00Z,24.6930,-82.7730,10.0,2.1,330.0,2.6,'11111222,11111222,11111222' 
NDBC,ioos:station:NOAA.NDBC:PLSF1:1,2019-08-05T19:45:00Z,24.6930,-82.7730,10.0,0.0,-9999.0,0.5,'11111222,11111222,11111222' 
NDBC,ioos:station:NOAA.NDBC:PLSF1:1,2019-08-05T20:45:00Z,24.6930,-82.7730,10.0,0.5,310.0,1.0,'11111222,11111222,11111222' 
NDBC,ioos:station:NOAA.NDBC:PLSF1:1,2019-08-05T21:45:00Z,24.6930,-82.7730,10.0,3.6,10.0,4.6,'11111222,11111222,11111222' 
NDBC,ioos:station:NOAA.NDBC:PLSF1:1,2019-08-05T22:45:00Z,24.6930,-82.7730,10.0,0.5,340.0,1.0,'11111222,11111222,11111222' 
NDBC,ioos:station:NOAA.NDBC:PLSF1:1,2019-08-05T23:45:00Z,24.6930,-82.7730,10.0,3.6,10.0,4.1,'11111222,11111222,11111222' 
NDBC,ioos:station:NOAA.NDBC:PLSF1:1,2019-08-06T00:45:00Z,24.6930,-82.7730,10.0,4.6,10.0,5.1,'11111222,11111222,11111222' 
NDBC,ioos:station:NOAA.NDBC:PLSF1:1,2019-08-06T01:45:00Z,24.6930,-82.7730,10.0,3.1,40.0,3.1,'11111222,11111222,11111222' 
NDBC,ioos:station:NOAA.NDBC:PLSF1:1,2019-08-06T02:45:00Z,24.6930,-82.7730,10.0,1.0,10.0,2.1,'11111222,11111222,11111222' 
NDBC,ioos:station:NOAA.NDBC:PLSF1:1,2019-08-06T03:45:00Z,24.6930,-82.7730,10.0,0.0,-9999.0,0.5,'11111222,11111222,11111222' 
NDBC,ioos:station:NOAA.NDBC:PLSF1:1,2019-08-06T04:45:00Z,24.6930,-82.7730,10.0,1.0,330.0,1.0,'11111222,11111222,11111222' 
NDBC,ioos:station:NOAA.NDBC:PLSF1:1,2019-08-06T05:45:00Z,24.6930,-82.7730,10.0,1.0,250.0,2.1,'11111222,11111222,11111222' 
NDBC,ioos:station:NOAA.NDBC:PLSF1:1,2019-08-06T06:45:00Z,24.6930,-82.7730,10.0,1.0,240.0,1.5,'11111222,11111222,11111222' 
NDBC,ioos:station:NOAA.NDBC:PLSF1:1,2019-08-06T07:45:00Z,24.6930,-82.7730,10.0,1.0,320.0,1.5,'11111222,11111222,11111222' 
NDBC,ioos:station:NOAA.NDBC:PLSF1:1,2019-08-06T08:45:00Z,24.6930,-82.7730,10.0,0.5,280.0,1.5,'11111222,11111222,11111222' 
NDBC,ioos:station:NOAA.NDBC:PLSF1:1,2019-08-06T09:45:00Z,24.6930,-82.7730,10.0,0.0,-9999.0,0.5,'11111222,11111222,11111222' 
NDBC,ioos:station:NOAA.NDBC:PLSF1:1,2019-08-06T10:45:00Z,24.6930,-82.7730,10.0,0.0,-9999.0,0.5,'11111222,11111222,11111222' 
NDBC,ioos:station:NOAA.NDBC:PLSF1:1,2019-08-06T12:45:00Z,24.6930,-82.7730,10.0,0.5,160.0,1.0,'11111222,11111222,11111222' 
NDBC,ioos:station:NOAA.NDBC:PLSF1:1,2019-08-06T13:45:00Z,24.6930,-82.7730,10.0,1.0,130.0,1.5,'11111222,11111222,11111222' 
NDBC,ioos:station:NOAA.NDBC:PLSF1:1,2019-08-06T14:45:00Z,24.6930,-82.7730,10.0,0.5,160.0,1.0,'11111222,11111222,11111222' 
NDBC,ioos:station:NOAA.NDBC:PLSF1:1,2019-08-06T16:45:00Z,24.6930,-82.7730,10.0,2.1,330.0,2.6,'11111222,11111222,11111222' 
NDBC,ioos:station:NOAA.NDBC:PLSF1:1,2019-08-06T17:45:00Z,24.6930,-82.7730,10.0,1.5,340.0,2.1,'11111222,11111222,11111222' 
NDBC,ioos:station:NOAA.NDBC:PLSF1:1,2019-08-06T18:45:00Z,24.6930,-82.7730,10.0,2.1,330.0,2.1,'11111222,11111222,11111222' 
NDBC,ioos:station:NOAA.NDBC:PLSF1:1,2019-08-06T19:45:00Z,24.6930,-82.7730,10.0,3.1,330.0,3.1,'11111222,11111222,11111222' 
NDBC,ioos:station:NOAA.NDBC:PLSF1:1,2019-08-06T20:45:00Z,24.6930,-82.7730,10.0,4.1,340.0,4.1,'11111222,11111222,11111222' 
NDBC,ioos:station:NOAA.NDBC:PLSF1:1,2019-08-06T21:45:00Z,24.6930,-82.7730,10.0,4.1,360.0,4.1,'11111222,11144222,11111222' 
NDBC,ioos:station:NOAA.NDBC:PLSF1:1,2019-08-06T22:45:00Z,24.6930,-82.7730,10.0,3.1,20.0,3.6,'11111222,11111222,11111222' 
NDBC,ioos:station:NOAA.NDBC:PLSF1:1,2019-08-06T23:45:00Z,24.6930,-82.7730,10.0,2.6,20.0,3.1,'11111222,11111222,11111222' 
NDBC,ioos:station:NOAA.NDBC:PLSF1:1,2019-08-07T01:45:00Z,24.6930,-82.7730,10.0,4.6,40.0,4.6,'11111222,11111222,11111222' 
NDBC,ioos:station:NOAA.NDBC:PLSF1:1,2019-08-07T02:45:00Z,24.6930,-82.7730,10.0,3.1,10.0,3.6,'11111222,11111222,11111222' 
NDBC,ioos:station:NOAA.NDBC:PLSF1:1,2019-08-07T03:45:00Z,24.6930,-82.7730,10.0,2.1,20.0,3.1,'11111222,11111222,11111222' 
NDBC,ioos:station:NOAA.NDBC:PLSF1:1,2019-08-07T05:45:00Z,24.6930,-82.7730,10.0,1.5,120.0,2.6,'11111222,11111222,11111222' 
NDBC,ioos:station:NOAA.NDBC:PLSF1:1,2019-08-07T06:45:00Z,24.6930,-82.7730,10.0,0.5,330.0,1.0,'11111222,11111222,11111222' 
NDBC,ioos:station:NOAA.NDBC:PLSF1:1,2019-08-07T07:45:00Z,24.6930,-82.7730,10.0,0.0,-9999.0,0.5,'11111222,11111222,11111222' 
NDBC,ioos:station:NOAA.NDBC:PLSF1:1,2019-08-07T09:45:00Z,24.6930,-82.7730,10.0,0.0,-9999.0,0.5,'11111222,11111222,11111222' 
NDBC,ioos:station:NOAA.NDBC:PLSF1:1,2019-08-07T11:45:00Z,24.6930,-82.7730,10.0,1.5,60.0,2.1,'11111222,11111222,11111222' 
NDBC,ioos:station:NOAA.NDBC:PLSF1:1,2019-08-07T12:45:00Z,24.6930,-82.7730,10.0,1.0,70.0,1.5,'11111222,11111222,11111222' 
NDBC,ioos:station:NOAA.NDBC:PLSF1:1,2019-08-07T13:45:00Z,24.6930,-82.7730,10.0,1.5,30.0,2.1,'11111222,11111222,11111222' 
NDBC,ioos:station:NOAA.NDBC:PLSF1:1,2019-08-07T14:45:00Z,24.6930,-82.7730,10.0,2.1,150.0,3.1,'11111222,11111222,11111222' 
NDBC,ioos:station:NOAA.NDBC:PLSF1:1,2019-08-07T15:45:00Z,24.6930,-82.7730,10.0,2.6,150.0,2.6,'11111222,11111222,11111222' 
NDBC,ioos:station:NOAA.NDBC:PLSF1:1,2019-08-07T17:45:00Z,24.6930,-82.7730,10.0,0.0,-9999.0,1.0,'11111222,11111222,11111222' 
NDBC,ioos:station:NOAA.NDBC:PLSF1:1,2019-08-07T18:45:00Z,24.6930,-82.7730,10.0,1.5,20.0,2.1,'11111222,11111222,11111222' 
NDBC,ioos:station:NOAA.NDBC:PLSF1:1,2019-08-07T19:45:00Z,24.6930,-82.7730,10.0,1.0,10.0,1.5,'11111222,11111222,11111222' 
NDBC,ioos:station:NOAA.NDBC:PLSF1:1,2019-08-07T20:45:00Z,24.6930,-82.7730,10.0,1.0,10.0,1.5,'11111222,11111222,11111222' 
NDBC,ioos:station:NOAA.NDBC:PLSF1:1,2019-08-07T22:45:00Z,24.6930,-82.7730,10.0,2.6,10.0,3.1,'11111222,11111222,11111222' 
NDBC,ioos:station:NOAA.NDBC:PLSF1:1,2019-08-07T23:45:00Z,24.6930,-82.7730,10.0,2.1,30.0,2.6,'11111222,11111222,11111222' 
NDBC,ioos:station:NOAA.NDBC:PLSF1:1,2019-08-08T00:45:00Z,24.6930,-82.7730,10.0,4.1,30.0,4.6,'11111222,11111222,11111222' 
NDBC,ioos:station:NOAA.NDBC:PLSF1:1,2019-08-08T02:45:00Z,24.6930,-82.7730,10.0,3.1,70.0,3.6,'11111222,11111222,11111222' 
NDBC,ioos:station:NOAA.NDBC:PLSF1:1,2019-08-08T03:45:00Z,24.6930,-82.7730,10.0,0.0,-9999.0,1.0,'11111222,11111222,11111222' 
NDBC,ioos:station:NOAA.NDBC:PLSF1:1,2019-08-08T04:45:00Z,24.6930,-82.7730,10.0,0.0,-9999.0,1.0,'11111222,11111222,11111222' 
NDBC,ioos:station:NOAA.NDBC:PLSF1:1,2019-08-08T05:45:00Z,24.6930,-82.7730,10.0,0.0,-9999.0,0.5,'11111222,11111222,11111222' 
NDBC,ioos:station:NOAA.NDBC:PLSF1:1,2019-08-08T07:45:00Z,24.6930,-82.7730,10.0,0.5,350.0,1.5,'11111222,11111222,11111222' 
NDBC,ioos:station:NOAA.NDBC:PLSF1:1,2019-08-08T08:45:00Z,24.6930,-82.7730,10.0,0.0,-9999.0,0.5,'11111222,11111222,11111222' 
NDBC,ioos:station:NOAA.NDBC:PLSF1:1,2019-08-08T10:45:00Z,24.6930,-82.7730,10.0,1.0,50.0,1.0,'11111222,11111222,11111222' 
NDBC,ioos:station:NOAA.NDBC:PLSF1:1,2019-08-08T11:45:00Z,24.6930,-82.7730,10.0,1.0,70.0,1.5,'11111222,11111222,11111222' 
NDBC,ioos:station:NOAA.NDBC:PLSF1:1,2019-08-08T12:45:00Z,24.6930,-82.7730,10.0,1.0,70.0,1.5,'11111222,11111222,11111222' 
NDBC,ioos:station:NOAA.NDBC:PLSF1:1,2019-08-08T14:45:00Z,24.6930,-82.7730,10.0,2.6,40.0,3.1,'11111222,11111222,11111222' 
NDBC,ioos:station:NOAA.NDBC:PLSF1:1,2019-08-08T15:45:00Z,24.6930,-82.7730,10.0,3.1,40.0,3.1,'11111222,11111222,11111222' 
NDBC,ioos:station:NOAA.NDBC:PLSF1:1,2019-08-08T16:45:00Z,24.6930,-82.7730,10.0,3.1,50.0,3.6,'11111222,11111222,11111222' 
NDBC,ioos:station:NOAA.NDBC:PLSF1:1,2019-08-08T17:45:00Z,24.6930,-82.7730,10.0,5.1,150.0,5.7,'11111222,11111222,11111222' 
NDBC,ioos:station:NOAA.NDBC:PLSF1:1,2019-08-08T18:45:00Z,24.6930,-82.7730,10.0,2.1,140.0,2.1,'11111222,11111222,11111222' 
NDBC,ioos:station:NOAA.NDBC:PLSF1:1,2019-08-08T19:45:00Z,24.6930,-82.7730,10.0,0.0,-9999.0,0.5,'11111222,11111222,11111222' 
NDBC,ioos:station:NOAA.NDBC:PLSF1:1,2019-08-08T22:45:00Z,24.6930,-82.7730,10.0,1.5,330.0,2.1,'11111222,11111222,11111222' 
NDBC,ioos:station:NOAA.NDBC:PLSF1:1,2019-08-08T23:45:00Z,24.6930,-82.7730,10.0,1.5,340.0,2.1,'11111222,11111222,11111222' 
NDBC,ioos:station:NOAA.NDBC:PLSF1:1,2019-08-09T00:45:00Z,24.6930,-82.7730,10.0,3.6,340.0,4.1,'11111222,11111222,11111222' 
NDBC,ioos:station:NOAA.NDBC:PLSF1:1,2019-08-09T01:45:00Z,24.6930,-82.7730,10.0,3.1,340.0,3.6,'11111222,11111222,11111222' 
NDBC,ioos:station:NOAA.NDBC:PLSF1:1,2019-08-09T02:45:00Z,24.6930,-82.7730,10.0,2.6,10.0,3.1,'11111222,11111222,11111222' 
NDBC,ioos:station:NOAA.NDBC:PLSF1:1,2019-08-09T03:45:00Z,24.6930,-82.7730,10.0,1.5,20.0,2.6,'11111222,11111222,11111222' 
NDBC,ioos:station:NOAA.NDBC:PLSF1:1,2019-08-09T05:45:00Z,24.6930,-82.7730,10.0,1.5,260.0,2.6,'11111222,11111222,11111222' 
NDBC,ioos:station:NOAA.NDBC:PLSF1:1,2019-08-09T06:45:00Z,24.6930,-82.7730,10.0,1.0,310.0,1.5,'11111222,11111222,11111222' 
NDBC,ioos:station:NOAA.NDBC:PLSF1:1,2019-08-09T08:45:00Z,24.6930,-82.7730,10.0,2.6,210.0,3.1,'11111222,11111222,11111222' 
NDBC,ioos:station:NOAA.NDBC:PLSF1:1,2019-08-09T09:45:00Z,24.6930,-82.7730,10.0,0.0,-9999.0,0.5,'11111222,11111222,11111222' 
NDBC,ioos:station:NOAA.NDBC:PLSF1:1,2019-08-09T12:45:00Z,24.6930,-82.7730,10.0,2.1,180.0,2.1,'11111222,11111222,11111222' 
NDBC,ioos:station:NOAA.NDBC:PLSF1:1,2019-08-09T13:45:00Z,24.6930,-82.7730,10.0,2.1,190.0,2.6,'11111222,11111222,11111222' 
NDBC,ioos:station:NOAA.NDBC:PLSF1:1,2019-08-09T15:45:00Z,24.6930,-82.7730,10.0,2.1,240.0,2.1,'11111222,11111222,11111222' 
NDBC,ioos:station:NOAA.NDBC:PLSF1:1,2019-08-09T16:45:00Z,24.6930,-82.7730,10.0,2.1,240.0,2.6,'11111222,11111222,11111222' 
NDBC,ioos:station:NOAA.NDBC:PLSF1:1,2019-08-09T17:45:00Z,24.6930,-82.7730,10.0,1.5,280.0,2.1,'11111222,11111222,11111222' 
NDBC,ioos:station:NOAA.NDBC:PLSF1:1,2019-08-09T18:45:00Z,24.6930,-82.7730,10.0,2.6,290.0,2.6,'11111222,11111222,11111222' 
NDBC,ioos:station:NOAA.NDBC:PLSF1:1,2019-08-09T19:45:00Z,24.6930,-82.7730,10.0,2.1,310.0,2.6,'11111222,11111222,11111222' 
NDBC,ioos:station:NOAA.NDBC:PLSF1:1,2019-08-09T21:45:00Z,24.6930,-82.7730,10.0,2.6,340.0,3.1,'11111222,11111222,11111222' 
NDBC,ioos:station:NOAA.NDBC:PLSF1:1,2019-08-09T22:45:00Z,24.6930,-82.7730,10.0,2.6,350.0,3.6,'11111222,11111222,11111222' 
NDBC,ioos:station:NOAA.NDBC:PLSF1:1,2019-08-09T23:45:00Z,24.6930,-82.7730,10.0,2.1,360.0,2.6,'11111222,11144222,11111222' 
NDBC,ioos:station:NOAA.NDBC:PLSF1:1,2019-08-10T00:45:00Z,24.6930,-82.7730,10.0,2.1,330.0,2.6,'11111222,11111222,11111222' 
NDBC,ioos:station:NOAA.NDBC:PLSF1:1,2019-08-10T01:45:00Z,24.6930,-82.7730,10.0,2.6,330.0,2.6,'11111222,11111222,11111222' 
NDBC,ioos:station:NOAA.NDBC:PLSF1:1,2019-08-10T02:45:00Z,24.6930,-82.7730,10.0,2.1,330.0,2.1,'11111222,11111222,11111222' 
NDBC,ioos:station:NOAA.NDBC:PLSF1:1,2019-08-10T04:45:00Z,24.6930,-82.7730,10.0,0.0,-9999.0,1.0,'11111222,11111222,11111222' 
NDBC,ioos:station:NOAA.NDBC:PLSF1:1,2019-08-10T05:45:00Z,24.6930,-82.7730,10.0,0.0,-9999.0,0.5,'11111222,11111222,11111222' 
NDBC,ioos:station:NOAA.NDBC:PLSF1:1,2019-08-10T06:45:00Z,24.6930,-82.7730,10.0,1.5,10.0,2.1,'11111222,11111222,11111222' 
NDBC,ioos:station:NOAA.NDBC:PLSF1:1,2019-08-10T07:45:00Z,24.6930,-82.7730,10.0,1.0,330.0,1.0,'11111222,11111222,11111222' 
NDBC,ioos:station:NOAA.NDBC:PLSF1:1,2019-08-10T08:45:00Z,24.6930,-82.7730,10.0,0.0,-9999.0,1.0,'11111222,11111222,11111222' 